Accueil
METAR-TAF:

METAR-TAF

Aéroports :

Newport, Vermont, États-Unis

latitude: 44-53-20N, longitude: 072-13-45W, altitude: 283 m

Observation

Le bulletin a été fait il y a 14 minutes, à 08:55 UTC
Vent 3 kt de sud-ouest
Température -13°C
Humidité 92%
Pression 1031 hPa
Visibilité: 16.1 km
Ciel clair

METAR: KEFK 230855Z AUTO 23003KT 10SM CLR M13/M14 A3044 RMK AO2 T11291139

Heure: 04:09 (09:09 UTC)


TAF: absent

Observations et prévisions météorologiques de plus de 4000 aéroports (messages METAR et TAF).

Les stations disponibles sont représentées par des disques jaunes et rouges sur la carte.

Passer la souris dessus pour voir le nom de la station.

Cliquer dessus pour voir les observations et prévisions météorologiques.

Pour changer de carte: cliquez sur les boutons verts avec une croix noire pour zoomer, sur le bouton vert avec un tiret pour effectuer un zoom arrière, ou sur les flèches vertes pour les cartes adjacentes.


METAR-TAF: